CZ-6A DEB, 54969

Orbit data source: Space-Track

CZ-6A DEB, 54969 is space debris in SSO originally from a launch on Fri, 11 Nov 2022 UTC launched from the Taiyaun Space Center, China (TSC). Debris objects in space refer to the collection of defunct objects orbiting the Earth. Examples of debris include non-operational satellites, rocket bodies, and fragments generated from explosions, collisions, or faulty payload assembly.

Loading next visibility...
Identifier
54969, 2022-151TJ
Orbit
SSO
Country
Flag of CNCN / PRC
Related business
Manufacturer
SAST
Mission
Spacecraft
Bus & Motor
Unknown
Mass
Unknown
Launch date (UTC)
2022-11-11 (3 years ago)
Launch vehicle
Unknown
Launch site
Taiyaun Space Center, China (TSC)
Object type
Payload
Rocket body
Debris
Shape & HBR
Unknown shape, 0.2 m
Radar Cross Section
Small (<0.1 m²)

Expand to show TLE details & history
Last TLE update: 8 hours ago

TLE from 8 hours ago
0 CZ-6A DEB
1 54969U 22151TJ  26130.52606081  .00000139  00000-0  10278-3 0  9998
2 54969  98.8532 131.9743 0048832  73.4233 287.2292 14.09599819179357
Epoch: 2026-05-10T12:37Z
TLE epoch observation values (Epoch: 2026-05-10T12:37:31.653Z)
Latitude
-0.0001°
Longitude
74.26455°
Altitude
853.323 km
Speed
7.431 km/s
True Right ascension
08h 47m 53s
True Declination
0° 00' 00"
Sunlit
Object was in daylight at epoch
Visualization orbit readout
Latitude
Unknown
Longitude
Unknown
Altitude
Unknown
Speed
Unknown
Apparent Right ascension
Unknown
Apparent Declination
Unknown
Sunlit
N/A
Visualization observer readout
Local Sidereal Time
04:33:54
Azimuth
Unknown
Elevation
Unknown
Doppler factor
Unknown
Orbital elements
Apogee altitude
893.256 km
Perigee altitude
822.586 km
Semi-major axis
7,236.058 km
Eccentricity
0.00488
Inclination
98.8532°
RAAN
131.9743°
Arg. of periapsis
73.4233°
True anomaly
286.69378°
Mean anomaly
287.2292°
Eccentric anomaly
286.96158°
Mean motion
3.52606 °/min
Orbital period
102.1 mins
BSTAR
0.00010278
Loading maneuver chart data...
Computing Atmospheric mass density...
Loading historical data...
Loading historical data...
Loading historical data...
Loading historical data...
Loading historical data...
Loading historical data...
Loading historical data...

Documentation

Showing up to 5 results
|